STARLINK-2709 (48664 NORAD) Tracking and Keplerian Element Data

This shows tracking and keplerian element data for the satellite.

Feedback or suggestion? Click here.




ElementValue
Catalog48664
NameSTARLINK-2709
Epoch Orbit2257
Epoch Day287.92062081
Epoch Year2021
RAAN124.6721
Inclination53.0559
Eccentricity0.000177
Argument of Perigee85.9114
Mean Anonmoly274.2077
Mean Motion15.0638939
Decay Rate-5.4E-06
L11 48664U 21055E 21287.92062081 -.00000540 00000-0 -17321-4 0 9998
L22 48664 53.0559 124.6721 0001770 85.9114 274.2077 15.06389390 22572

Live tracking and technical data element details for STARLINK-2709 (NORAD 48664). STARLINK-2709 can be tracked NOW for your location showing map with azimuth and elevation plus other details from your city location.

Track the satellite on the map from your city or location and see movement details for azimuth, elevation, latitude, longitude, range, height, and movement on the map or in text.







IsCatalogInMostPopularTable: catalog: 48664, numindb: 31
Update: records affected: 1



GetName: 48664 STARLINK-2709

Hit Count: updated at: Tue, 19 Oct 2021 07:49:21 GMT